Location: Caltech
(34.1382°N, 118.1253°W)
Time: 18:28:45
(UTC-07:00)

Iridium 72 - Visible Passes

Search period start: 27 July 2015 00:00
Search period end: 06 August 2015 00:00
Orbit: 776 x 779 km, 86.4° (Epoch: 27 July)

Date Brightness Start Highest point End Pass type
(mag) Time Alt. Az. Time Alt. Az. Time Alt. Az.
27 Jul 7.0 01:55:02 10° NNE 01:58:22 32° NE 01:58:22 32° NE visible
27 Jul 7.4 03:36:43 10° NW 03:38:49 17° WNW 03:38:49 17° WNW visible
28 Jul 7.7 01:22:21 10° NNE 01:24:42 18° ENE 01:24:42 18° ENE visible
28 Jul 6.9 03:02:15 10° NNW 03:05:09 27° NW 03:05:09 27° NW visible
29 Jul 6.7 02:28:23 10° N 02:31:29 36° NNW 02:31:29 36° NNW visible
30 Jul 7.1 01:54:54 10° N 01:57:50 33° NNE 01:57:50 33° NNE visible
30 Jul 7.9 03:38:05 10° NW 03:38:17 10° WNW 03:38:17 10° WNW visible
31 Jul 7.6 01:21:51 10° NNE 01:24:12 22° NE 01:24:12 22° NE visible
31 Jul 7.5 03:02:48 10° NNW 03:04:39 18° NW 03:04:39 18° NW visible
01 Aug 8.1 00:49:31 10° NE 00:50:34 13° NE 00:50:34 13° NE visible
01 Aug 7.2 02:28:38 10° NNW 02:31:01 26° NNW 02:31:01 26° NNW visible
02 Aug 7.3 01:54:55 10° N 01:57:23 29° N 01:57:23 29° N visible
03 Aug 7.6 01:21:36 10° NNE 01:23:46 24° NNE 01:23:46 24° NNE visible
03 Aug 7.9 03:03:41 10° NW 03:04:14 12° NW 03:04:14 12° NW visible
04 Aug 8.0 00:48:45 10° NNE 00:50:10 16° NE 00:50:10 16° NE visible
04 Aug 7.7 02:29:03 10° NNW 02:30:37 18° NW 02:30:37 18° NW visible
05 Aug 7.5 01:55:04 10° N 01:57:01 23° NNW 01:57:01 23° NNW visible
